Theta_e
283 280 278 280 280 278 279 277 277 276 277 277 276 275 277 278 279 279 278 279 280 280 281 281 281 280 280 280 281 281 281 281 281 280 279 279 279 280 281 282 283 283 283 283
280 278 280 281 280 279 278 277 275 276 277 276 273 275 276 276 276 279 280 278 279 278 278 280 280 278 279 279 280 280 281 281 281 281 279 279 278 279 279 281 282 283 283 282
277 276 279 279 278 279 275 276 275 275 275 275 273 274 275 276 277 278 279 280 279 279 278 278 278 277 277 278 278 280 280 281 281 281 280 279 279 278 278 279 279 281 282 282
275 276 278 276 277 277 276 276 277 276 274 272 272 270 272 275 275 277 280 279 280 279 279 279 278 277 277 277 277 279 280 280 281 281 280 279 277 277 277 278 279 279 281 280
275 274 275 276 276 276 276 277 276 275 273 271 269 269 272 273 275 277 278 279 279 280 279 279 279 280 278 278 277 278 279 279 280 280 280 278 277 277 278 278 279 279 279 280
273 275 275 275 277 276 277 276 276 275 272 266 269 270 272 274 276 275 277 278 279 279 279 278 279 279 278 277 277 277 278 279 279 279 279 279 277 277 277 277 278 278 278 278
273 273 274 277 275 277 276 274 269 267 264 267 269 268 273 276 276 278 278 278 278 278 278 277 277 278 278 277 276 277 278 278 278 278 279 278 278 278 278 278 278 277 277 277
271 270 273 275 274 274 274 273 270 264 265 269 271 268 275 276 276 277 278 278 278 278 278 277 278 279 279 278 277 278 278 278 278 278 278 278 278 278 278 278 277 277 277 277
269 270 273 275 274 274 273 271 273 266 263 265 270 273 277 277 276 276 277 277 277 277 278 278 277 278 278 278 278 278 278 278 278 278 278 278 278 278 278 278 278 277 277 279
274 268 273 273 273 272 272 274 270 268 262 262 268 268 273 275 276 276 276 276 277 277 278 279 278 278 278 278 278 278 278 279 278 278 278 278 278 278 278 278 277 278 278 279
271 272 269 272 269 271 270 269 269 271 268 265 264 270 274 278 279 278 277 277 277 277 278 278 279 278 278 278 278 278 278 278 278 278 278 278 278 278 278 278 278 278 278 278
276 270 264 267 269 270 269 270 271 268 266 265 267 269 276 276 278 278 278 278 276 277 278 278 278 279 278 277 277 278 278 278 279 279 278 278 278 278 278 278 278 279 278 278
274 265 259 266 266 268 265 271 273 271 269 264 265 271 276 276 276 277 277 277 278 278 277 277 277 278 278 277 277 278 278 279 279 278 278 278 278 278 277 278 278 278 276 276
279 262 266 268 269 267 263 267 273 268 262 266 269 270 273 276 275 275 277 278 277 277 277 276 276 277 277 278 277 277 278 279 278 278 278 277 277 278 277 278 278 278 277 275
273 265 261 262 268 266 265 263 270 269 273 270 273 274 275 277 277 277 278 276 276 277 276 276 277 276 276 277 277 277 277 278 278 278 277 278 278 278 278 278 278 278 278 278
265 262 258 260 269 270 265 265 267 272 271 271 271 272 277 276 276 276 276 277 277 276 276 277 278 278 278 278 278 278 277 277 278 277 277 278 278 278 278 278 278 278 278 277
265 261 260 260 268 267 266 267 266 269 266 274 270 278 276 274 276 277 276 276 277 276 276 277 276 276 276 275 276 273 274 275 275 275 276 276 277 276 276 276 276 276 275 275
263 263 261 257 259 260 272 269 270 273 273 274 272 271 276 277 274 274 274 276 276 276 276 275 273 273 272 272 272 273 273 273 272 272 272 273 273 273 273 272 271 271 271 269
268 266 260 263 257 268 273 268 268 270 274 276 276 278 273 270 271 270 273 275 275 273 272 271 271 270 270 270 270 270 268 268 268 268 268 269 271 270 270 270 268 266 266 264
270 267 266 257 261 262 270 269 271 273 272 275 278 279 272 272 271 272 271 272 270 271 270 269 269 269 268 268 269 266 265 264 264 265 266 267 268 269 267 267 268 267 263 264
263 262 266 260 262 266 270 270 271 269 273 271 276 278 274 275 272 271 271 269 270 269 267 267 267 266 267 267 266 263 262 261 263 264 264 265 266 267 267 266 266 264 263 263
265 265 265 260 261 266 271 272 274 274 270 272 271 272 273 270 270 270 268 267 267 266 266 266 264 263 263 265 264 261 260 260 261 262 262 262 263 265 265 264 264 263 262 261
268 270 268 271 271 270 274 272 273 272 273 271 271 272 272 269 268 268 267 266 265 265 265 264 262 260 259 260 261 259 259 259 259 259 258 259 260 262 263 262 261 261 261 259
267 268 269 273 271 271 272 273 274 274 273 274 273 272 271 267 267 266 266 266 265 264 263 262 261 259 257 258 258 258 258 257 257 257 258 259 258 259 260 261 262 261 259 259
270 272 270 271 272 274 273 275 274 272 272 271 271 271 269 268 267 267 265 265 264 263 263 262 261 260 258 257 256 257 257 257 258 258 258 257 258 258 259 260 260 261 262 264
271 271 272 272 275 276 275 273 273 271 271 271 270 269 269 269 267 266 264 264 263 262 262 261 260 258 258 257 256 255 256 257 257 258 258 257 257 257 258 257 257 262 264 266
Wind_Speed
2 3 8 8 5 1 5 3 4 0 1 1 5 6 9 7 6 9 9 9 9 9 6 7 7 7 7 6 7 7 7 6 5 2 2 3 3 2 3 4 6 6 5 7
4 6 3 3 2 2 3 4 2 1 0 1 3 10 8 5 7 10 11 10 10 6 7 8 8 7 8 8 7 6 6 6 4 2 2 3 2 2 3 2 4 5 6 6
6 0 1 3 3 6 1 5 4 1 1 1 4 8 3 2 3 4 6 6 6 11 11 9 9 9 8 8 9 8 8 7 5 5 4 4 4 2 2 2 2 3 5 5
1 1 3 2 3 3 5 3 4 5 3 4 2 6 5 4 4 4 8 8 8 9 8 7 9 9 9 9 7 7 7 7 6 8 5 6 4 3 2 2 2 3 5 5
4 1 2 3 2 0 3 2 4 3 4 2 1 2 8 1 6 7 8 9 9 9 10 12 14 13 8 8 8 7 7 6 5 6 6 5 4 2 2 2 5 4 2 5
3 0 2 2 3 2 7 6 6 4 3 3 3 5 7 8 9 5 4 7 9 9 9 9 7 8 7 7 7 7 8 7 7 7 7 7 8 7 5 4 3 3 1 2
1 1 0 2 6 5 2 5 4 4 4 7 1 2 12 6 6 8 12 9 8 7 9 9 11 11 9 11 9 8 8 7 7 7 6 7 7 7 8 6 4 4 2 1
7 5 8 4 2 7 5 5 8 10 5 4 2 9 11 5 2 2 7 8 7 8 7 9 11 11 11 12 11 10 10 8 8 8 8 6 7 4 4 5 4 4 4 4
6 2 1 2 1 1 6 6 3 9 2 4 5 8 10 5 5 4 8 8 10 8 7 9 8 8 9 10 12 13 10 8 8 8 6 7 6 6 6 6 5 4 4 4
7 4 2 1 0 0 4 2 4 3 4 5 5 7 8 7 13 9 9 10 9 7 7 7 7 7 6 7 7 7 8 11 8 7 6 5 6 6 6 5 6 5 5 5
5 5 0 2 7 8 2 2 2 2 5 7 2 10 10 14 16 20 13 11 10 10 9 7 6 7 7 6 7 9 9 9 9 8 7 7 6 6 5 5 5 5 4 4
5 6 5 8 0 2 2 5 7 6 7 3 2 11 2 6 8 11 13 11 8 7 8 6 5 6 7 8 8 10 9 9 10 9 8 8 6 6 7 6 6 5 5 4
8 3 4 7 6 4 5 7 4 4 3 8 8 9 1 2 5 8 11 10 9 8 7 6 5 6 6 6 7 7 8 10 7 7 8 7 7 7 7 7 6 5 3 3
6 2 10 11 9 7 7 8 14 6 5 6 10 3 4 7 8 8 9 11 10 9 9 7 5 5 4 5 6 7 7 8 8 8 8 8 8 8 7 6 6 6 5 3
5 7 4 3 2 3 6 7 19 16 16 10 6 14 8 9 13 15 10 7 8 9 8 7 6 5 3 3 3 5 6 6 6 7 7 9 6 6 6 6 6 5 5 5
1 3 4 5 0 1 4 5 10 17 2 11 5 14 8 3 7 7 11 13 12 8 8 7 6 6 5 3 0 2 4 5 5 4 4 5 5 5 4 3 4 4 3 2
8 8 5 7 2 1 12 15 13 8 6 16 14 28 8 5 9 14 14 14 14 9 9 7 7 5 4 5 5 6 6 8 9 9 7 7 6 7 6 6 6 6 5 5
8 7 4 4 3 5 8 2 8 18 8 19 7 6 10 8 2 4 4 12 11 12 9 8 6 6 5 5 8 8 9 11 12 11 10 9 8 8 7 8 7 5 3 4
2 5 3 7 6 10 12 7 11 13 17 23 26 16 5 3 4 3 2 3 6 10 10 8 7 7 7 8 8 10 11 11 12 11 10 8 7 7 6 7 5 3 4 3
3 3 4 3 8 14 9 4 7 6 16 15 27 25 12 8 6 6 6 8 14 13 11 11 10 9 9 8 9 12 11 11 11 8 7 6 6 7 7 5 5 3 3 2
4 1 13 4 6 13 7 7 3 8 12 1 9 8 16 12 4 10 15 14 13 13 13 11 10 10 9 8 10 13 10 10 6 5 6 7 6 7 6 5 4 3 4 4
12 12 8 3 2 19 7 5 14 5 2 1 1 3 9 12 13 15 14 16 15 15 13 11 11 10 9 8 10 11 11 6 5 6 7 7 6 6 5 5 5 4 5 4
6 9 9 13 10 1 8 3 2 2 4 3 4 4 14 17 12 14 14 14 13 13 13 11 12 12 8 8 7 10 6 5 6 7 7 6 6 7 6 5 5 3 4 3
6 4 3 2 2 2 3 1 2 2 2 3 6 12 11 18 15 16 14 13 12 11 11 11 12 11 9 8 10 10 7 5 6 7 6 5 5 5 5 4 4 3 3 3
4 10 7 5 2 2 0 2 5 8 9 11 11 10 16 19 16 17 14 13 12 11 10 9 10 10 10 8 8 7 6 5 5 6 5 5 5 5 5 5 4 5 3 5
6 8 7 6 5 3 1 11 9 9 9 10 16 15 12 15 17 16 13 11 11 11 10 10 10 10 9 9 9 8 7 7 5 6 5 5 4 4 4 4 5 8 9 13
Wind_Direction
27 119 206 192 192 89 136 143 169 49 92 154 231 270 262 231 210 218 218 212 214 216 207 183 182 169 152 155 154 161 150 154 137 124 109 73 80 46 43 39 41 41 38 40
55 232 151 103 162 165 145 137 188 326 100 140 12 279 261 195 220 202 204 212 210 181 183 182 178 176 173 167 175 172 173 167 180 154 150 133 147 88 87 61 46 46 40 34
168 187 29 148 148 143 66 166 177 198 78 80 350 296 237 215 220 179 214 201 184 190 187 187 185 188 175 180 182 180 182 179 174 157 118 87 81 66 59 42 51 41 61 51
126 18 170 135 168 122 177 165 121 118 104 226 30 263 272 217 221 208 205 202 202 189 182 179 182 188 190 198 181 179 180 178 174 163 147 154 153 155 181 143 125 72 69 70
218 130 167 161 126 113 150 117 96 85 88 5 239 84 262 70 232 227 206 208 213 198 188 186 191 192 188 176 185 183 177 184 174 174 165 158 146 142 137 132 133 116 82 88
96 73 30 85 75 30 149 78 55 62 71 3 214 155 269 193 196 177 192 201 203 195 195 197 176 161 182 174 176 179 179 194 183 180 180 177 167 161 151 161 158 153 154 102
46 205 313 176 90 8 66 104 32 3 4 221 2 130 246 248 223 187 182 195 196 189 186 182 177 182 181 184 184 178 181 197 191 185 183 183 177 173 174 168 171 164 170 155
155 269 174 167 217 177 188 164 157 192 196 208 350 230 250 224 235 176 174 180 197 210 197 193 191 188 189 186 183 179 177 190 186 185 191 189 182 182 186 178 174 181 178 173
141 239 31 55 9 72 192 206 150 104 35 51 212 282 295 193 221 193 180 177 205 214 208 202 185 191 186 184 188 187 180 189 187 188 182 187 185 185 189 190 185 181 179 178
201 90 2 56 211 70 146 230 97 360 133 252 269 281 239 210 206 202 205 202 208 210 203 205 195 195 190 188 179 172 184 191 189 179 187 191 190 192 190 185 193 196 199 192
132 106 360 48 203 179 136 212 37 126 148 166 185 256 215 208 195 194 195 198 191 195 194 191 198 192 192 173 173 185 183 180 178 181 183 184 195 199 190 195 210 210 201 203
199 113 154 205 177 41 146 200 171 138 223 239 165 267 245 220 198 175 194 189 187 190 186 185 185 180 189 193 183 191 191 188 197 185 173 189 182 186 190 202 210 197 216 214
192 255 65 351 356 359 209 193 184 125 91 206 141 262 148 247 198 199 177 185 182 182 175 179 178 198 207 202 193 193 186 200 185 170 179 179 189 189 203 206 205 206 200 222
126 118 171 196 195 134 192 193 183 144 135 168 228 282 237 230 211 194 192 184 180 179 184 189 179 193 208 212 204 191 195 186 173 174 180 186 190 196 199 202 199 201 194 208
152 213 153 259 234 131 192 173 183 199 205 175 230 220 214 213 203 200 186 153 168 187 191 186 170 170 176 216 229 206 197 179 172 174 177 203 192 181 181 191 201 201 211 214
343 224 96 308 340 152 275 218 211 222 267 271 282 267 206 220 113 159 190 180 184 192 172 161 122 105 82 37 53 152 178 163 148 139 128 121 136 148 165 172 187 187 200 192
154 134 103 259 357 90 297 196 189 199 203 210 217 240 175 200 204 197 194 185 188 172 150 132 108 95 74 44 62 69 76 88 88 84 66 61 78 80 67 68 71 69 63 61
150 129 113 180 30 220 246 55 188 198 208 212 261 229 185 200 126 122 151 173 161 138 130 117 112 103 70 60 66 74 68 75 78 69 58 51 57 66 69 68 66 54 47 46
141 132 138 155 193 300 259 194 153 168 249 207 221 224 196 113 63 324 15 85 116 115 106 103 93 82 81 72 75 81 69 70 69 62 59 42 56 65 59 60 52 44 49 32
122 95 135 124 179 211 268 200 146 117 270 177 201 219 164 138 188 221 137 108 103 102 105 104 89 83 75 68 84 81 69 68 62 58 60 48 53 70 64 51 47 29 38 18
130 188 210 174 232 281 209 176 162 127 244 277 208 185 157 190 222 129 122 106 104 107 104 95 85 80 76 84 87 81 76 63 60 59 61 52 40 65 52 49 39 26 27 27
164 160 189 95 147 258 152 75 183 206 355 71 31 124 129 113 114 117 114 114 112 110 105 96 94 81 58 66 86 84 73 60 49 63 62 54 42 48 42 47 33 24 29 19
220 194 177 188 212 239 204 32 112 144 137 185 114 104 126 124 124 121 120 112 108 109 109 105 102 91 58 55 71 88 67 59 65 65 59 47 42 45 32 35 26 29 18 5
247 179 180 131 286 239 218 5 49 24 100 108 115 127 124 125 126 118 115 114 111 110 111 116 110 98 87 70 74 74 66 57 70 69 54 52 44 27 30 31 20 22 356 343
172 149 165 262 216 129 250 219 138 107 100 93 87 110 127 128 129 127 122 119 117 115 113 111 111 107 102 92 73 58 48 36 75 72 56 41 41 25 21 17 3 354 325 316
191 165 179 218 191 138 164 133 131 118 113 114 114 111 113 122 122 118 111 112 114 114 112 105 103 103 101 92 81 62 45 48 55 65 48 34 29 16 13 358 340 343 336 336